Tracking 18851 objects as of 24-Nov-2017
HD Live streaming from Space Station
objects crossing your sky now

FENGYUN 1C DEB

Track FENGYUN 1C DEB now!
10-day predictions


NORAD ID: 30497
Int'l Code: 1999-025AHK
Perigee: 566.6 km
Apogee: 636.0 km
Inclination: 99.1 °
Period: 96.6 minutes
Semi major axis: 6972 km
RCS: 0.024 m2 (small)
Launch date: May 10, 1999
Source: People's Republic of China (PRC)
Launch site: Taiyaun Space Center, China (TSC)

Note: This is SATELLITE DEBRIS
aabbcc
Your satellite tracking list
Your tracking list is empty




NASA's NSSDC Master Catalog

Two Line Element Set (TLE):
1 30497U 99025AHK 17327.96577701 +.00012548 +00000-0 +12384-2 0  9990
2 30497 099.1323 323.0318 0049805 135.0437 285.3441 14.91215762571470
Source of the keplerian elements: AFSPC